Time,TemperatureF,DewpointF,PressureIn,WindDirection,WindDirectionDegrees,WindSpeedMPH,WindSpeedGustMPH,Humidity,HourlyPrecipIn,Conditions,Clouds,dailyrainin,SoftwareType,DateUTC
2013-04-20 00:00:00,46.0,41.1,29.90,ENE,57,2.0,4.0,83,0.00,,OVC055,1.06,VWS V14.01,2013-04-20 04:00:00,
2013-04-20 00:01:00,46.1,41.8,29.91,ESE,111,1.0,2.0,85,0.00,,OVC055,0.00,VWS V14.01,2013-04-20 04:01:00,
2013-04-20 00:06:00,46.1,41.5,29.91,ENE,71,1.0,3.0,84,0.00,,OVC055,0.00,VWS V14.01,2013-04-20 04:06:00,
2013-04-20 00:11:00,46.0,40.8,29.91,ESE,107,1.0,7.0,82,0.00,,OVC055,0.00,VWS V14.01,2013-04-20 04:11:00,
2013-04-20 00:16:00,46.0,40.8,29.92,East,85,3.0,7.0,82,0.00,,OVC055,0.00,VWS V14.01,2013-04-20 04:16:00,
2013-04-20 00:21:00,45.9,40.7,29.92,NE,40,4.0,7.0,82,0.00,,OVC055,0.00,VWS V14.01,2013-04-20 04:21:00,
2013-04-20 00:26:00,45.8,39.7,29.92,NE,50,3.0,8.0,79,0.00,,OVC055,0.00,VWS V14.01,2013-04-20 04:26:00,
2013-04-20 00:30:00,45.8,40.0,29.92,NNE,13,3.0,8.0,80,0.00,,OVC055,0.00,VWS V14.01,2013-04-20 04:30:00,
2013-04-20 00:31:00,45.8,40.3,29.92,NE,46,6.0,6.0,81,0.00,,OVC055,0.00,VWS V14.01,2013-04-20 04:31:00,
2013-04-20 00:36:00,45.6,38.8,29.92,NE,39,4.0,8.0,77,0.00,,OVC055,0.00,VWS V14.01,2013-04-20 04:36:00,
2013-04-20 00:41:00,45.3,38.5,29.92,NE,34,2.0,8.0,77,0.00,,OVC055,0.00,VWS V14.01,2013-04-20 04:41:00,
2013-04-20 00:46:00,45.1,38.3,29.92,NNE,24,5.0,8.0,77,0.00,,OVC055,0.00,VWS V14.01,2013-04-20 04:46:00,
2013-04-20 00:51:00,45.0,38.2,29.92,NNE,26,4.0,8.0,77,0.00,,OVC055,0.00,VWS V14.01,2013-04-20 04:51:00,
2013-04-20 00:56:00,44.8,38.4,29.92,NE,42,1.0,8.0,78,0.00,,OVC055,0.00,VWS V14.01,2013-04-20 04:56:00,
2013-04-20 01:00:00,44.7,38.6,29.93,NE,42,1.0,8.0,79,0.00,,OVC055,0.00,VWS V14.01,2013-04-20 05:00:00,
2013-04-20 01:01:00,44.6,38.2,29.93,NE,44,3.0,3.0,78,0.00,,OVC055,0.00,VWS V14.01,2013-04-20 05:01:00,
2013-04-20 01:06:00,44.4,38.0,29.93,NE,53,1.0,4.0,78,0.00,,OVC055,0.00,VWS V14.01,2013-04-20 05:06:00,
2013-04-20 01:11:00,44.3,37.6,29.93,NNE,28,5.0,5.0,77,0.00,,OVC055,0.00,VWS V14.01,2013-04-20 05:11:00,
2013-04-20 01:16:00,44.2,37.1,29.93,ENE,64,4.0,5.0,76,0.00,,OVC055,0.00,VWS V14.01,2013-04-20 05:16:00,
2013-04-20 01:21:00,44.1,38.7,29.93,NE,47,0.0,5.0,81,0.00,,OVC055,0.00,VWS V14.01,2013-04-20 05:21:00,
2013-04-20 01:25:00,43.8,36.4,29.94,NE,40,1.0,5.0,75,0.00,,OVC055,0.00,VWS V14.01,2013-04-20 05:25:00,
2013-04-20 01:30:00,43.7,37.3,29.94,ENE,76,0.0,1.0,78,0.00,,OVC055,0.00,VWS V14.01,2013-04-20 05:30:00,
2013-04-20 01:35:00,43.4,37.7,29.94,ENE,76,0.0,1.0,80,0.00,,OVC055,0.00,VWS V14.01,2013-04-20 05:35:00,
2013-04-20 01:40:00,42.9,37.8,29.94,ENE,76,0.0,1.0,82,0.00,,OVC055,0.00,VWS V14.01,2013-04-20 05:40:00,
2013-04-20 01:45:00,42.5,37.7,29.94,ENE,76,0.0,1.0,83,0.00,,OVC055,0.00,VWS V14.01,2013-04-20 05:45:00,
2013-04-20 01:50:00,42.1,37.3,29.93,ENE,76,0.0,1.0,83,0.00,,OVC055,0.00,VWS V14.01,2013-04-20 05:50:00,
2013-04-20 01:55:00,41.8,37.3,29.93,ENE,76,0.0,1.0,84,0.00,,OVC055,0.00,VWS V14.01,2013-04-20 05:55:00,
2013-04-20 02:00:00,41.5,37.3,29.94,ENE,76,0.0,0.0,85,0.00,,OVC055,0.00,VWS V14.01,2013-04-20 06:00:00,
2013-04-20 02:05:00,41.1,37.2,29.94,ENE,76,0.0,2.0,86,0.00,,OVC055,0.00,VWS V14.01,2013-04-20 06:05:00,
2013-04-20 02:10:00,40.6,36.2,29.94,ENE,76,1.0,2.0,84,0.00,,OVC055,0.00,VWS V14.01,2013-04-20 06:10:00,
2013-04-20 02:15:00,40.2,36.7,29.94,ENE,76,0.0,2.0,87,0.00,,OVC055,0.00,VWS V14.01,2013-04-20 06:15:00,
2013-04-20 02:20:00,40.0,35.9,29.94,ENE,76,1.0,2.0,85,0.00,,OVC055,0.00,VWS V14.01,2013-04-20 06:20:00,
2013-04-20 02:25:00,40.0,35.9,29.95,ENE,76,0.0,2.0,85,0.00,,OVC055,0.00,VWS V14.01,2013-04-20 06:25:00,
2013-04-20 02:30:00,40.0,36.2,29.95,ENE,76,0.0,2.0,86,0.00,,OVC055,0.00,VWS V14.01,2013-04-20 06:30:00,
2013-04-20 02:35:00,39.8,36.2,29.94,ENE,76,1.0,2.0,87,0.00,,OVC055,0.00,VWS V14.01,2013-04-20 06:35:00,
2013-04-20 02:40:00,39.8,36.5,29.95,ENE,76,0.0,2.0,88,0.00,,OVC055,0.00,VWS V14.01,2013-04-20 06:40:00,
2013-04-20 02:45:00,39.6,35.8,29.95,ENE,70,1.0,3.0,86,0.00,,OVC055,0.00,VWS V14.01,2013-04-20 06:45:00,
2013-04-20 02:50:00,39.9,34.9,29.95,NNE,17,1.0,4.0,82,0.00,,OVC055,0.00,VWS V14.01,2013-04-20 06:50:00,
2013-04-20 02:55:00,40.1,35.1,29.95,NNE,15,0.0,4.0,82,0.00,,OVC055,0.00,VWS V14.01,2013-04-20 06:55:00,
2013-04-20 03:00:00,39.8,35.4,29.95,NNE,15,2.0,2.0,84,0.00,,OVC055,0.00,VWS V14.01,2013-04-20 07:00:00,
2013-04-20 03:05:00,39.4,35.0,29.95,NNE,15,0.0,2.0,84,0.00,,OVC055,0.00,VWS V14.01,2013-04-20 07:05:00,
2013-04-20 03:10:00,39.0,34.3,29.95,NNE,15,1.0,2.0,83,0.00,,OVC055,0.00,VWS V14.01,2013-04-20 07:10:00,
2013-04-20 03:15:00,38.9,33.9,29.95,ENE,62,0.0,2.0,82,0.00,,OVC055,0.00,VWS V14.01,2013-04-20 07:15:00,
2013-04-20 03:20:00,39.0,34.0,29.96,NNW,343,1.0,3.0,82,0.00,,OVC055,0.00,VWS V14.01,2013-04-20 07:20:00,
2013-04-20 03:25:00,39.2,34.5,29.96,North,355,0.0,3.0,83,0.00,,OVC055,0.00,VWS V14.01,2013-04-20 07:25:00,
2013-04-20 03:30:00,39.0,34.0,29.96,North,355,0.0,0.0,82,0.00,,OVC055,0.00,VWS V14.01,2013-04-20 07:30:00,
2013-04-20 03:35:00,38.8,34.4,29.97,North,355,0.0,2.0,84,0.00,,OVC055,0.00,VWS V14.01,2013-04-20 07:35:00,
2013-04-20 03:40:00,38.6,33.0,29.97,North,355,1.0,2.0,80,0.00,,OVC055,0.00,VWS V14.01,2013-04-20 07:40:00,
2013-04-20 03:45:00,38.6,33.0,29.97,NNW,348,0.0,2.0,80,0.00,,OVC055,0.00,VWS V14.01,2013-04-20 07:45:00,
2013-04-20 03:50:00,38.6,32.7,29.97,NNW,348,0.0,2.0,79,0.00,,OVC055,0.00,VWS V14.01,2013-04-20 07:50:00,
2013-04-20 03:55:00,38.4,32.8,29.97,NNW,348,0.0,2.0,80,0.00,,OVC055,0.00,VWS V14.01,2013-04-20 07:55:00,
2013-04-20 04:00:00,38.3,32.0,29.97,ENE,69,0.0,0.0,78,0.00,,OVC055,0.00,VWS V14.01,2013-04-20 08:00:00,
2013-04-20 04:05:00,38.2,32.0,29.98,ENE,69,0.0,1.0,78,0.00,,OVC055,0.00,VWS V14.01,2013-04-20 08:05:00,
2013-04-20 04:10:00,38.8,32.2,29.98,North,11,1.0,5.0,77,0.00,,OVC055,0.00,VWS V14.01,2013-04-20 08:10:00,
2013-04-20 04:15:00,39.1,32.2,29.98,NNE,27,2.0,6.0,76,0.00,,OVC055,0.00,VWS V14.01,2013-04-20 08:15:00,
2013-04-20 04:20:00,39.2,32.9,29.98,NNE,27,0.0,6.0,78,0.00,,OVC055,0.00,VWS V14.01,2013-04-20 08:20:00,
2013-04-20 04:25:00,39.0,32.1,29.99,North,350,0.0,6.0,76,0.00,,OVC055,0.00,VWS V14.01,2013-04-20 08:25:00,
2013-04-20 04:30:00,38.7,32.1,29.99,North,355,8.0,8.0,77,0.00,,OVC055,0.00,VWS V14.01,2013-04-20 08:30:00,
2013-04-20 04:35:00,39.1,31.9,29.99,NE,38,1.0,9.0,75,0.00,,OVC055,0.00,VWS V14.01,2013-04-20 08:35:00,
2013-04-20 04:40:00,39.6,30.6,29.99,North,5,4.0,12.0,70,0.00,,OVC055,0.00,VWS V14.01,2013-04-20 08:40:00,
2013-04-20 04:45:00,39.9,30.9,29.99,NNE,14,3.0,12.0,70,0.00,,OVC055,0.00,VWS V14.01,2013-04-20 08:45:00,
2013-04-20 04:50:00,40.0,30.7,30.00,NE,35,4.0,12.0,69,0.00,,OVC055,0.00,VWS V14.01,2013-04-20 08:50:00,
2013-04-20 04:55:00,40.0,30.3,30.00,North,10,4.0,12.0,68,0.00,,OVC055,0.00,VWS V14.01,2013-04-20 08:55:00,
2013-04-20 05:00:00,40.1,30.4,30.00,North,11,8.0,8.0,68,0.00,,OVC055,0.00,VWS V14.01,2013-04-20 09:00:00,
2013-04-20 05:05:00,40.1,29.7,30.00,NE,34,4.0,9.0,66,0.00,,OVC055,0.00,VWS V14.01,2013-04-20 09:05:00,
2013-04-20 05:10:00,40.0,29.6,30.00,NNE,33,4.0,10.0,66,0.00,,OVC055,0.00,VWS V14.01,2013-04-20 09:10:00,
2013-04-20 05:15:00,40.0,29.2,30.01,NE,49,8.0,10.0,65,0.00,,OVC055,0.00,VWS V14.01,2013-04-20 09:15:00,
2013-04-20 05:20:00,40.2,28.6,30.01,NNE,22,4.0,11.0,63,0.00,,OVC055,0.00,VWS V14.01,2013-04-20 09:20:00,
2013-04-20 05:25:00,40.2,27.8,30.01,NNE,31,7.0,11.0,61,0.00,,OVC055,0.00,VWS V14.01,2013-04-20 09:25:00,
2013-04-20 05:30:00,40.3,27.1,30.01,North,9,7.0,9.0,59,0.00,,OVC055,0.00,VWS V14.01,2013-04-20 09:30:00,
2013-04-20 05:35:00,40.4,26.4,30.01,NNW,333,9.0,12.0,57,0.00,,OVC055,0.00,VWS V14.01,2013-04-20 09:35:00,
2013-04-20 05:40:00,40.4,26.4,30.01,North,5,7.0,12.0,57,0.00,,OVC055,0.00,VWS V14.01,2013-04-20 09:40:00,
2013-04-20 05:45:00,40.1,26.5,30.02,NNE,23,8.0,12.0,58,0.00,,OVC055,0.00,VWS V14.01,2013-04-20 09:45:00,
2013-04-20 05:50:00,40.1,25.2,30.02,NE,55,4.0,13.0,55,0.00,,OVC055,0.00,VWS V14.01,2013-04-20 09:50:00,
2013-04-20 05:55:00,40.1,25.2,30.02,NNE,28,5.0,13.0,55,0.00,,OVC055,0.00,VWS V14.01,2013-04-20 09:55:00,
2013-04-20 06:00:00,40.2,24.9,30.02,NE,48,5.0,10.0,54,0.00,,OVC055,0.00,VWS V14.01,2013-04-20 10:00:00,
2013-04-20 06:05:00,40.0,24.7,30.03,NNW,348,5.0,11.0,54,0.00,,OVC055,0.00,VWS V14.01,2013-04-20 10:05:00,
2013-04-20 06:10:00,40.1,23.9,30.03,NNE,31,8.0,13.0,52,0.00,,OVC055,0.00,VWS V14.01,2013-04-20 10:10:00,
2013-04-20 06:15:00,40.2,24.0,30.03,North,355,5.0,15.0,52,0.00,,OVC055,0.00,VWS V14.01,2013-04-20 10:15:00,
2013-04-20 06:20:00,40.1,23.9,30.03,NE,50,4.0,15.0,52,0.00,,OVC055,0.00,VWS V14.01,2013-04-20 10:20:00,
2013-04-20 06:25:00,39.9,24.6,30.04,NE,44,5.0,15.0,54,0.00,,OVC055,0.00,VWS V14.01,2013-04-20 10:25:00,
2013-04-20 06:30:00,39.7,24.0,30.04,ENE,59,4.0,7.0,53,0.00,,OVC055,0.00,VWS V14.01,2013-04-20 10:30:00,
2013-04-20 06:35:00,39.7,24.4,30.04,North,11,5.0,8.0,54,0.00,,OVC055,0.00,VWS V14.01,2013-04-20 10:35:00,
2013-04-20 06:40:00,39.6,23.9,30.05,NNE,24,6.0,9.0,53,0.00,,OVC055,0.00,VWS V14.01,2013-04-20 10:40:00,
2013-04-20 06:45:00,39.8,24.1,30.05,NE,47,4.0,12.0,53,0.00,,OVC055,0.00,VWS V14.01,2013-04-20 10:45:00,
2013-04-20 06:50:00,39.8,23.6,30.05,NNE,17,5.0,12.0,52,0.00,,OVC055,0.00,VWS V14.01,2013-04-20 10:50:00,
2013-04-20 06:55:00,39.7,23.5,30.05,NE,48,6.0,12.0,52,0.00,,OVC055,0.00,VWS V14.01,2013-04-20 10:55:00,
2013-04-20 07:00:00,39.8,24.5,30.06,NNE,24,6.0,10.0,54,0.00,,OVC055,0.00,VWS V14.01,2013-04-20 11:00:00,
2013-04-20 07:05:00,39.8,23.6,30.06,NE,53,6.0,11.0,52,0.00,,OVC055,0.00,VWS V14.01,2013-04-20 11:05:00,
2013-04-20 07:10:00,39.9,24.2,30.07,North,350,1.0,11.0,53,0.00,,OVC055,0.00,VWS V14.01,2013-04-20 11:10:00,
2013-04-20 07:15:00,39.7,24.4,30.07,NE,42,7.0,11.0,54,0.00,,OVC055,0.00,VWS V14.01,2013-04-20 11:15:00,
2013-04-20 07:20:00,39.8,24.1,30.07,NE,36,7.0,13.0,53,0.00,,OVC055,0.00,VWS V14.01,2013-04-20 11:20:00,
2013-04-20 07:25:00,39.9,24.2,30.08,North,5,7.0,13.0,53,0.00,,OVC055,0.00,VWS V14.01,2013-04-20 11:25:00,
2013-04-20 07:30:00,40.1,23.9,30.08,NE,35,6.0,8.0,52,0.00,,OVC055,0.00,VWS V14.01,2013-04-20 11:30:00,
2013-04-20 07:35:00,40.1,24.4,30.08,NNE,26,5.0,9.0,53,0.00,,OVC055,0.00,VWS V14.01,2013-04-20 11:35:00,
2013-04-20 07:40:00,40.2,24.9,30.09,NNE,25,3.0,12.0,54,0.00,,OVC055,0.00,VWS V14.01,2013-04-20 11:40:00,
2013-04-20 07:45:00,40.4,24.2,30.09,NNE,30,12.0,12.0,52,0.00,,OVC055,0.00,VWS V14.01,2013-04-20 11:45:00,
2013-04-20 07:50:00,40.5,24.7,30.09,NNE,31,8.0,12.0,53,0.00,,OVC055,0.00,VWS V14.01,2013-04-20 11:50:00,
2013-04-20 07:55:00,40.7,24.9,30.10,NNE,21,4.0,12.0,53,0.00,,OVC055,0.00,VWS V14.01,2013-04-20 11:55:00,
2013-04-20 08:00:00,40.8,25.5,30.10,NNE,13,5.0,8.0,54,0.00,,OVC055,0.00,VWS V14.01,2013-04-20 12:00:00,
2013-04-20 08:05:00,41.0,25.2,30.11,NE,38,8.0,14.0,53,0.00,,OVC055,0.00,VWS V14.01,2013-04-20 12:05:00,
2013-04-20 08:10:00,41.2,25.8,30.11,ENE,57,3.0,14.0,54,0.00,,OVC055,0.00,VWS V14.01,2013-04-20 12:10:00,
2013-04-20 08:14:00,41.4,25.6,30.11,North,5,5.0,14.0,53,0.00,,OVC055,0.00,VWS V14.01,2013-04-20 12:14:00,
2013-04-20 08:19:00,41.6,25.8,30.11,North,9,4.0,14.0,53,0.00,,OVC055,0.00,VWS V14.01,2013-04-20 12:19:00,
2013-04-20 08:24:00,41.8,25.5,30.12,NE,48,7.0,14.0,52,0.00,,OVC055,0.00,VWS V14.01,2013-04-20 12:24:00,
2013-04-20 08:29:00,42.0,25.2,30.12,North,10,11.0,13.0,51,0.00,,OVC055,0.00,VWS V14.01,2013-04-20 12:29:00,
2013-04-20 08:30:00,42.0,25.7,30.12,NNE,21,8.0,14.0,52,0.00,,OVC055,0.00,VWS V14.01,2013-04-20 12:30:00,
2013-04-20 08:35:00,42.2,26.3,30.12,NNE,23,3.0,13.0,53,0.00,,OVC055,0.00,VWS V14.01,2013-04-20 12:35:00,
2013-04-20 08:40:00,42.4,26.0,30.12,NE,46,6.0,13.0,52,0.00,,OVC055,0.00,VWS V14.01,2013-04-20 12:40:00,
2013-04-20 08:44:00,42.5,25.7,30.12,NNE,24,4.0,13.0,51,0.00,,OVC055,0.00,VWS V14.01,2013-04-20 12:44:00,
2013-04-20 08:49:00,42.8,27.3,30.13,NE,48,9.0,13.0,54,0.00,,OVC055,0.00,VWS V14.01,2013-04-20 12:49:00,
2013-04-20 08:54:00,42.9,26.5,30.13,NE,45,8.0,13.0,52,0.00,,OVC055,0.00,VWS V14.01,2013-04-20 12:54:00,
2013-04-20 08:59:00,42.9,26.0,30.13,North,5,7.0,12.0,51,0.00,,OVC055,0.00,VWS V14.01,2013-04-20 12:59:00,
2013-04-20 09:00:00,42.9,26.0,30.13,ENE,64,9.0,13.0,51,0.00,,OVC055,0.00,VWS V14.01,2013-04-20 13:00:00,
2013-04-20 09:04:00,43.2,26.8,30.13,NNE,22,7.0,12.0,52,0.00,,OVC055,0.00,VWS V14.01,2013-04-20 13:04:00,
2013-04-20 09:09:00,43.5,28.0,30.13,ENE,65,4.0,12.0,54,0.00,,OVC055,0.00,VWS V14.01,2013-04-20 13:09:00,
2013-04-20 09:14:00,43.8,26.4,30.14,NE,55,6.0,12.0,50,0.00,,OVC055,0.00,VWS V14.01,2013-04-20 13:14:00,
2013-04-20 09:19:00,44.0,27.0,30.14,NNE,20,8.0,12.0,51,0.00,,OVC055,0.00,VWS V14.01,2013-04-20 13:19:00,
2013-04-20 09:24:00,44.0,27.0,30.14,North,5,8.0,15.0,51,0.00,,OVC055,0.00,VWS V14.01,2013-04-20 13:24:00,
2013-04-20 09:29:00,44.3,27.8,30.14,NE,55,5.0,7.0,52,0.00,,OVC055,0.00,VWS V14.01,2013-04-20 13:29:00,
2013-04-20 09:30:00,44.3,27.3,30.14,NE,51,4.0,15.0,51,0.00,,OVC055,0.00,VWS V14.01,2013-04-20 13:30:00,
2013-04-20 09:34:00,44.8,27.3,30.14,NE,38,8.0,13.0,50,0.00,,OVC055,0.00,VWS V14.01,2013-04-20 13:34:00,
2013-04-20 09:39:00,44.8,26.3,30.14,NNE,32,5.0,13.0,48,0.00,,OVC055,0.00,VWS V14.01,2013-04-20 13:39:00,
2013-04-20 09:44:00,45.0,27.5,30.15,North,11,8.0,13.0,50,0.00,,OVC055,0.00,VWS V14.01,2013-04-20 13:44:00,
2013-04-20 09:49:00,45.1,27.6,30.15,NE,46,6.0,13.0,50,0.00,,OVC055,0.00,VWS V14.01,2013-04-20 13:49:00,
2013-04-20 09:54:00,45.5,27.0,30.15,NNE,26,5.0,13.0,48,0.00,,OVC055,0.00,VWS V14.01,2013-04-20 13:54:00,
2013-04-20 09:59:00,46.0,27.4,30.15,North,355,8.0,12.0,48,0.00,,OVC055,0.00,VWS V14.01,2013-04-20 13:59:00,
2013-04-20 10:00:00,46.0,27.9,30.15,North,5,12.0,13.0,49,0.00,,OVC055,0.00,VWS V14.01,2013-04-20 14:00:00,
2013-04-20 10:04:00,46.2,27.1,30.15,NE,46,7.0,12.0,47,0.00,,OVC055,0.00,VWS V14.01,2013-04-20 14:04:00,
2013-04-20 10:09:00,46.3,27.2,30.15,NNE,23,9.0,12.0,47,0.00,,OVC055,0.00,VWS V14.01,2013-04-20 14:09:00,
2013-04-20 10:14:00,46.4,28.8,30.15,NNE,30,5.0,12.0,50,0.00,,OVC055,0.00,VWS V14.01,2013-04-20 14:14:00,
2013-04-20 10:19:00,47.2,30.0,30.16,NE,39,9.0,12.0,51,0.00,,OVC055,0.00,VWS V14.01,2013-04-20 14:19:00,
2013-04-20 10:24:00,46.9,27.7,30.16,NE,38,8.0,12.0,47,0.00,,OVC055,0.00,VWS V14.01,2013-04-20 14:24:00,
2013-04-20 10:29:00,47.0,28.9,30.16,NNE,14,5.0,8.0,49,0.00,,OVC055,0.00,VWS V14.01,2013-04-20 14:29:00,
2013-04-20 10:30:00,47.0,28.9,30.16,NNE,30,8.0,12.0,49,0.00,,OVC055,0.00,VWS V14.01,2013-04-20 14:30:00,
2013-04-20 10:34:00,47.6,28.4,30.16,ENE,57,2.0,8.0,47,0.00,,OVC055,0.00,VWS V14.01,2013-04-20 14:34:00,
2013-04-20 10:39:00,47.8,28.0,30.16,NE,52,3.0,11.0,46,0.00,,OVC055,0.00,VWS V14.01,2013-04-20 14:39:00,
2013-04-20 10:44:00,47.8,29.1,30.17,NNE,15,7.0,11.0,48,0.00,,OVC055,0.00,VWS V14.01,2013-04-20 14:44:00,
2013-04-20 10:49:00,48.2,27.9,30.17,ENE,71,1.0,11.0,45,0.00,,OVC055,0.00,VWS V14.01,2013-04-20 14:49:00,
2013-04-20 10:54:00,48.8,29.5,30.17,NNE,33,4.0,11.0,47,0.00,,OVC055,0.00,VWS V14.01,2013-04-20 14:54:00,
2013-04-20 10:59:00,49.0,31.2,30.17,NE,46,4.0,8.0,50,0.00,,OVC055,0.00,VWS V14.01,2013-04-20 14:59:00,
2013-04-20 11:00:00,48.9,30.6,30.17,ENE,57,2.0,11.0,49,0.00,,OVC055,0.00,VWS V14.01,2013-04-20 15:00:00,
2013-04-20 11:04:00,49.0,29.1,30.17,NNE,32,4.0,9.0,46,0.00,,OVC055,0.00,VWS V14.01,2013-04-20 15:04:00,
2013-04-20 11:09:00,49.1,28.1,30.17,NE,40,7.0,9.0,44,0.00,,OVC055,0.00,VWS V14.01,2013-04-20 15:09:00,
2013-04-20 11:14:00,49.0,28.0,30.17,NNE,24,2.0,9.0,44,0.00,,OVC055,0.00,VWS V14.01,2013-04-20 15:14:00,
2013-04-20 11:19:00,49.6,29.7,30.17,NE,40,9.0,9.0,46,0.00,,OVC055,0.00,VWS V14.01,2013-04-20 15:19:00,
2013-04-20 11:24:00,49.4,26.7,30.17,NE,51,4.0,9.0,41,0.00,,OVC055,0.00,VWS V14.01,2013-04-20 15:24:00,
2013-04-20 11:29:00,50.0,31.6,30.17,NNE,28,7.0,8.0,49,0.00,,OVC055,0.00,VWS V14.01,2013-04-20 15:29:00,
2013-04-20 11:30:00,49.9,30.0,30.17,NE,36,4.0,9.0,46,0.00,,OVC055,0.00,VWS V14.01,2013-04-20 15:30:00,
2013-04-20 11:34:00,50.3,29.2,30.17,NE,41,1.0,9.0,44,0.00,,OVC055,0.00,VWS V14.01,2013-04-20 15:34:00,
2013-04-20 11:39:00,50.9,29.8,30.17,NNE,26,3.0,9.0,44,0.00,,OVC055,0.00,VWS V14.01,2013-04-20 15:39:00,
2013-04-20 11:44:00,50.8,28.5,30.17,NNE,25,5.0,9.0,42,0.00,,OVC055,0.00,VWS V14.01,2013-04-20 15:44:00,
2013-04-20 11:49:00,51.3,30.1,30.17,NNE,22,5.0,9.0,44,0.00,,OVC055,0.00,VWS V14.01,2013-04-20 15:49:00,
2013-04-20 11:54:00,51.5,30.9,30.18,North,10,4.0,9.0,45,0.00,,OVC055,0.00,VWS V14.01,2013-04-20 15:54:00,
2013-04-20 11:59:00,51.7,28.8,30.17,South,186,2.0,4.0,41,0.00,,OVC055,0.00,VWS V14.01,2013-04-20 15:59:00,
2013-04-20 12:00:00,51.7,28.8,30.17,South,187,3.0,9.0,41,0.00,,OVC055,0.00,VWS V14.01,2013-04-20 16:00:00,
2013-04-20 12:04:00,52.8,30.4,30.18,NE,53,3.0,6.0,42,0.00,,OVC055,0.00,VWS V14.01,2013-04-20 16:04:00,
2013-04-20 12:09:00,53.3,31.4,30.18,NE,40,7.0,8.0,43,0.00,,OVC055,0.00,VWS V14.01,2013-04-20 16:09:00,
2013-04-20 12:14:00,52.5,29.5,30.17,NNE,12,2.0,8.0,41,0.00,,OVC055,0.00,VWS V14.01,2013-04-20 16:14:00,
2013-04-20 12:19:00,52.6,29.6,30.17,NNW,346,5.0,8.0,41,0.00,,OVC055,0.00,VWS V14.01,2013-04-20 16:19:00,
2013-04-20 12:24:00,53.2,29.5,30.17,NNW,335,1.0,8.0,40,0.00,,OVC055,0.00,VWS V14.01,2013-04-20 16:24:00,
2013-04-20 12:29:00,54.5,28.8,30.17,NNE,32,1.0,2.0,37,0.00,,OVC055,0.00,VWS V14.01,2013-04-20 16:29:00,
2013-04-20 12:30:00,54.4,31.8,30.17,NE,41,2.0,8.0,42,0.00,,OVC055,0.00,VWS V14.01,2013-04-20 16:30:00,
2013-04-20 12:34:00,55.6,31.7,30.17,NW,322,1.0,3.0,40,0.00,,OVC055,0.00,VWS V14.01,2013-04-20 16:34:00,
2013-04-20 12:39:00,56.1,29.5,30.17,WSW,244,1.0,5.0,36,0.00,,OVC055,0.00,VWS V14.01,2013-04-20 16:39:00,
2013-04-20 12:44:00,56.6,31.3,30.16,SSW,198,2.0,5.0,38,0.00,,OVC055,0.00,VWS V14.01,2013-04-20 16:44:00,
2013-04-20 12:49:00,57.1,31.8,30.16,NW,315,2.0,5.0,38,0.00,,OVC055,0.00,VWS V14.01,2013-04-20 16:49:00,
2013-04-20 12:54:00,57.0,34.2,30.16,ENE,65,2.0,5.0,42,0.00,,OVC055,0.00,VWS V14.01,2013-04-20 16:54:00,
2013-04-20 12:59:00,56.9,32.2,30.16,North,350,2.0,2.0,39,0.00,,OVC055,0.00,VWS V14.01,2013-04-20 16:59:00,
2013-04-20 13:00:00,56.8,32.1,30.16,North,350,2.0,5.0,39,0.00,,OVC055,0.00,VWS V14.01,2013-04-20 17:00:00,
2013-04-20 13:04:00,56.6,29.3,30.16,SSW,192,2.0,4.0,35,0.00,,OVC055,0.00,VWS V14.01,2013-04-20 17:04:00,
2013-04-20 13:09:00,56.6,30.0,30.16,SW,222,2.0,4.0,36,0.00,,OVC055,0.00,VWS V14.01,2013-04-20 17:09:00,
2013-04-20 13:14:00,57.3,32.6,30.16,WNW,294,3.0,4.0,39,0.00,,OVC055,0.00,VWS V14.01,2013-04-20 17:14:00,
2013-04-20 13:19:00,58.3,31.5,30.16,NW,319,1.0,5.0,36,0.00,,OVC055,0.00,VWS V14.01,2013-04-20 17:19:00,
2013-04-20 13:24:00,58.6,31.0,30.15,NE,46,3.0,5.0,35,0.00,,OVC055,0.00,VWS V14.01,2013-04-20 17:24:00,
2013-04-20 13:29:00,58.9,29.9,30.15,SSW,202,4.0,4.0,33,0.00,,OVC055,0.00,VWS V14.01,2013-04-20 17:29:00,
2013-04-20 13:30:00,58.9,29.9,30.15,South,187,4.0,5.0,33,0.00,,OVC055,0.00,VWS V14.01,2013-04-20 17:30:00,
2013-04-20 13:34:00,59.1,31.5,30.15,NE,49,1.0,5.0,35,0.00,,OVC055,0.00,VWS V14.01,2013-04-20 17:34:00,
2013-04-20 13:39:00,59.0,26.8,30.15,NNE,31,6.0,6.0,29,0.00,,OVC055,0.00,VWS V14.01,2013-04-20 17:39:00,
2013-04-20 13:44:00,57.8,33.0,30.15,NE,53,2.0,7.0,39,0.00,,OVC055,0.00,VWS V14.01,2013-04-20 17:44:00,
2013-04-20 13:49:00,57.5,30.8,30.15,NE,52,3.0,7.0,36,0.00,,OVC055,0.00,VWS V14.01,2013-04-20 17:49:00,
2013-04-20 13:54:00,57.1,28.3,30.15,NNE,28,1.0,7.0,33,0.00,,OVC055,0.00,VWS V14.01,2013-04-20 17:54:00,
2013-04-20 13:59:00,57.2,29.8,30.16,NE,56,2.0,7.0,35,0.00,,OVC055,0.00,VWS V14.01,2013-04-20 17:59:00,
2013-04-20 14:00:00,57.2,29.8,30.16,NE,56,2.0,7.0,35,0.00,,OVC055,0.00,VWS V14.01,2013-04-20 18:00:00,
2013-04-20 14:04:00,57.5,27.1,30.15,ENE,63,1.0,4.0,31,0.00,,OVC055,0.00,VWS V14.01,2013-04-20 18:04:00,
2013-04-20 14:09:00,58.2,28.5,30.15,SE,138,0.0,4.0,32,0.00,,OVC055,0.00,VWS V14.01,2013-04-20 18:09:00,
2013-04-20 14:14:00,59.3,27.9,30.15,ENE,73,2.0,4.0,30,0.00,,OVC055,0.00,VWS V14.01,2013-04-20 18:14:00,
2013-04-20 14:19:00,59.1,30.0,30.15,East,81,3.0,4.0,33,0.00,,OVC055,0.00,VWS V14.01,2013-04-20 18:19:00,
2013-04-20 14:24:00,58.6,27.3,30.15,North,5,2.0,5.0,30,0.00,,OVC055,0.00,VWS V14.01,2013-04-20 18:24:00,
2013-04-20 14:29:00,58.7,26.5,30.15,North,5,0.0,5.0,29,0.00,,OVC055,0.00,VWS V14.01,2013-04-20 18:29:00,
2013-04-20 14:30:00,58.7,26.5,30.15,North,5,0.0,5.0,29,0.00,,OVC055,0.00,VWS V14.01,2013-04-20 18:30:00,
2013-04-20 14:34:00,59.3,27.9,30.15,North,5,4.0,6.0,30,0.00,,OVC055,0.00,VWS V14.01,2013-04-20 18:34:00,
2013-04-20 14:39:00,59.8,26.6,30.15,NE,48,3.0,6.0,28,0.00,,OVC055,0.00,VWS V14.01,2013-04-20 18:39:00,
2013-04-20 14:44:00,59.4,31.8,30.15,NE,48,3.0,6.0,35,0.00,,OVC055,0.00,VWS V14.01,2013-04-20 18:44:00,
2013-04-20 14:49:00,59.1,30.0,30.15,NE,36,5.0,6.0,33,0.00,,OVC055,0.00,VWS V14.01,2013-04-20 18:49:00,
2013-04-20 14:54:00,59.0,30.7,30.15,NE,36,6.0,6.0,34,0.00,,OVC055,0.00,VWS V14.01,2013-04-20 18:54:00,
2013-04-20 14:59:00,58.9,29.1,30.15,NE,53,3.0,6.0,32,0.00,,OVC055,0.00,VWS V14.01,2013-04-20 18:59:00,
2013-04-20 15:00:00,58.9,29.1,30.15,NE,53,3.0,6.0,32,0.00,,OVC055,0.00,VWS V14.01,2013-04-20 19:00:00,
2013-04-20 15:04:00,59.6,33.3,30.15,NE,38,3.0,4.0,37,0.00,,OVC055,0.00,VWS V14.01,2013-04-20 19:04:00,
2013-04-20 15:09:00,59.6,29.7,30.15,NNE,33,0.0,6.0,32,0.00,,OVC055,0.00,VWS V14.01,2013-04-20 19:09:00,
2013-04-20 15:14:00,60.2,29.5,30.15,SE,141,2.0,6.0,31,0.00,,OVC055,0.00,VWS V14.01,2013-04-20 19:14:00,
2013-04-20 15:19:00,60.8,30.0,30.14,SSW,196,2.0,6.0,31,0.00,,OVC055,0.00,VWS V14.01,2013-04-20 19:19:00,
2013-04-20 15:24:00,61.4,32.8,30.14,NE,36,2.0,6.0,34,0.00,,OVC055,0.00,VWS V14.01,2013-04-20 19:24:00,
2013-04-20 15:28:00,61.6,34.4,30.14,ENE,66,1.0,6.0,36,0.00,,OVC055,0.00,VWS V14.01,2013-04-20 19:28:00,
2013-04-20 15:30:00,61.6,34.4,30.14,ENE,66,1.0,6.0,36,0.00,,OVC055,0.00,VWS V14.01,2013-04-20 19:30:00,
2013-04-20 15:33:00,62.1,31.9,30.14,SSE,148,4.0,4.0,32,0.00,,OVC055,0.00,VWS V14.01,2013-04-20 19:33:00,
2013-04-20 15:38:00,63.0,33.5,30.14,NE,52,3.0,5.0,33,0.00,,OVC055,0.00,VWS V14.01,2013-04-20 19:38:00,
2013-04-20 15:43:00,61.8,32.4,30.14,ENE,62,1.0,8.0,33,0.00,,OVC055,0.00,VWS V14.01,2013-04-20 19:43:00,
2013-04-20 15:48:00,61.8,30.9,30.14,SSW,209,0.0,8.0,31,0.00,,OVC055,0.00,VWS V14.01,2013-04-20 19:48:00,
2013-04-20 15:53:00,62.0,35.5,30.14,NE,53,4.0,8.0,37,0.00,,OVC055,0.00,VWS V14.01,2013-04-20 19:53:00,
2013-04-20 15:58:00,62.0,32.6,30.14,NE,55,3.0,8.0,33,0.00,,OVC055,0.00,VWS V14.01,2013-04-20 19:58:00,
2013-04-20 16:00:00,62.0,33.3,30.14,ENE,65,2.0,8.0,34,0.00,,OVC055,0.00,VWS V14.01,2013-04-20 20:00:00,
2013-04-20 16:03:00,61.1,32.5,30.14,ENE,78,2.0,8.0,34,0.00,,OVC055,0.00,VWS V14.01,2013-04-20 20:03:00,
2013-04-20 16:08:00,60.6,32.8,30.14,NE,36,4.0,8.0,35,0.00,,OVC055,0.00,VWS V14.01,2013-04-20 20:08:00,
2013-04-20 16:13:00,60.4,32.7,30.14,ENE,76,1.0,8.0,35,0.00,,OVC055,0.00,VWS V14.01,2013-04-20 20:13:00,
2013-04-20 16:18:00,61.4,34.2,30.14,ENE,75,1.0,8.0,36,0.00,,OVC055,0.00,VWS V14.01,2013-04-20 20:18:00,
2013-04-20 16:23:00,61.1,32.5,30.14,North,355,8.0,13.0,34,0.00,,OVC055,0.00,VWS V14.01,2013-04-20 20:23:00,
2013-04-20 16:28:00,60.9,35.8,30.14,NE,38,4.0,13.0,39,0.00,,OVC055,0.00,VWS V14.01,2013-04-20 20:28:00,
2013-04-20 16:30:00,60.9,34.5,30.14,ENE,65,4.0,13.0,37,0.00,,OVC055,0.00,VWS V14.01,2013-04-20 20:30:00,
2013-04-20 16:33:00,60.7,36.3,30.14,NE,35,3.0,7.0,40,0.00,,OVC055,0.00,VWS V14.01,2013-04-20 20:33:00,
2013-04-20 16:38:00,60.2,34.5,30.14,ENE,71,2.0,12.0,38,0.00,,OVC055,0.00,VWS V14.01,2013-04-20 20:38:00,
2013-04-20 16:43:00,60.0,33.0,30.15,NE,53,4.0,12.0,36,0.00,,OVC055,0.00,VWS V14.01,2013-04-20 20:43:00,
2013-04-20 16:48:00,60.3,38.3,30.15,NE,38,9.0,12.0,44,0.00,,OVC055,0.00,VWS V14.01,2013-04-20 20:48:00,
2013-04-20 16:53:00,59.8,31.4,30.15,ENE,65,4.0,12.0,34,0.00,,OVC055,0.00,VWS V14.01,2013-04-20 20:53:00,
2013-04-20 16:58:00,59.4,32.5,30.15,NE,56,2.0,12.0,36,0.00,,OVC055,0.00,VWS V14.01,2013-04-20 20:58:00,
2013-04-20 17:00:00,59.4,33.1,30.15,NE,55,2.0,12.0,37,0.00,,OVC055,0.00,VWS V14.01,2013-04-20 21:00:00,
2013-04-20 17:03:00,59.2,34.3,30.15,East,90,3.0,9.0,39,0.00,,OVC055,0.00,VWS V14.01,2013-04-20 21:03:00,
2013-04-20 17:08:00,59.3,35.6,30.15,East,96,2.0,9.0,41,0.00,,OVC055,0.00,VWS V14.01,2013-04-20 21:08:00,
2013-04-20 17:13:00,59.4,33.8,30.15,NE,55,3.0,9.0,38,0.00,,OVC055,0.00,VWS V14.01,2013-04-20 21:13:00,
2013-04-20 17:18:00,59.4,34.5,30.16,NNE,31,7.0,12.0,39,0.00,,OVC055,0.00,VWS V14.01,2013-04-20 21:18:00,
2013-04-20 17:23:00,59.3,33.7,30.16,NNE,22,6.0,12.0,38,0.00,,OVC055,0.00,VWS V14.01,2013-04-20 21:23:00,
2013-04-20 17:28:00,59.0,35.3,30.16,ENE,59,5.0,12.0,41,0.00,,OVC055,0.00,VWS V14.01,2013-04-20 21:28:00,
2013-04-20 17:30:00,59.0,34.1,30.16,ENE,59,3.0,12.0,39,0.00,,OVC055,0.00,VWS V14.01,2013-04-20 21:30:00,
2013-04-20 17:33:00,59.2,33.0,30.16,East,79,2.0,5.0,37,0.00,,OVC055,0.00,VWS V14.01,2013-04-20 21:33:00,
2013-04-20 17:38:00,59.1,34.8,30.16,ENE,63,4.0,7.0,40,0.00,,OVC055,0.00,VWS V14.01,2013-04-20 21:38:00,
2013-04-20 17:43:00,58.9,35.9,30.16,ENE,74,2.0,9.0,42,0.00,,OVC055,0.00,VWS V14.01,2013-04-20 21:43:00,
2013-04-20 17:48:00,59.0,33.5,30.16,ENE,59,1.0,9.0,38,0.00,,OVC055,0.00,VWS V14.01,2013-04-20 21:48:00,
2013-04-20 17:53:00,58.8,31.9,30.16,NE,56,2.0,9.0,36,0.00,,OVC055,0.00,VWS V14.01,2013-04-20 21:53:00,
2013-04-20 17:58:00,59.0,32.8,30.16,ENE,74,0.0,9.0,37,0.00,,OVC055,0.00,VWS V14.01,2013-04-20 21:58:00,
2013-04-20 18:00:00,59.0,32.8,30.16,NE,43,3.0,9.0,37,0.00,,OVC055,0.00,VWS V14.01,2013-04-20 22:00:00,
2013-04-20 18:03:00,58.7,33.8,30.16,NE,38,4.0,8.0,39,0.00,,OVC055,0.00,VWS V14.01,2013-04-20 22:03:00,
2013-04-20 18:08:00,58.6,33.7,30.16,NNE,17,8.0,13.0,39,0.00,,OVC055,0.00,VWS V14.01,2013-04-20 22:08:00,
2013-04-20 18:13:00,58.4,36.6,30.16,NE,36,5.0,13.0,44,0.00,,OVC055,0.00,VWS V14.01,2013-04-20 22:13:00,
2013-04-20 18:18:00,58.3,32.8,30.17,NE,40,1.0,13.0,38,0.00,,OVC055,0.00,VWS V14.01,2013-04-20 22:18:00,
2013-04-20 18:23:00,58.4,33.6,30.17,East,80,5.0,13.0,39,0.00,,OVC055,0.00,VWS V14.01,2013-04-20 22:23:00,
2013-04-20 18:28:00,58.2,32.7,30.17,East,79,5.0,13.0,38,0.00,,OVC055,0.00,VWS V14.01,2013-04-20 22:28:00,
2013-04-20 18:30:00,58.2,32.7,30.17,ENE,78,2.0,13.0,38,0.00,,OVC055,0.00,VWS V14.01,2013-04-20 22:30:00,
2013-04-20 18:33:00,58.2,32.7,30.17,ENE,67,1.0,7.0,38,0.00,,OVC055,0.00,VWS V14.01,2013-04-20 22:33:00,
2013-04-20 18:38:00,58.0,33.8,30.17,NE,34,4.0,7.0,40,0.00,,OVC055,0.00,VWS V14.01,2013-04-20 22:38:00,
2013-04-20 18:43:00,57.7,32.3,30.17,ENE,66,1.0,7.0,38,0.00,,OVC055,0.00,VWS V14.01,2013-04-20 22:43:00,
2013-04-20 18:48:00,57.5,34.0,30.18,NE,43,6.0,7.0,41,0.00,,OVC055,0.00,VWS V14.01,2013-04-20 22:48:00,
2013-04-20 18:53:00,57.3,32.6,30.18,NE,51,2.0,7.0,39,0.00,,OVC055,0.00,VWS V14.01,2013-04-20 22:53:00,
2013-04-20 18:58:00,56.9,31.6,30.18,NE,55,4.0,7.0,38,0.00,,OVC055,0.00,VWS V14.01,2013-04-20 22:58:00,
2013-04-20 19:00:00,56.9,31.6,30.18,ENE,57,3.0,7.0,38,0.00,,OVC055,0.00,VWS V14.01,2013-04-20 23:00:00,
2013-04-20 19:03:00,56.6,32.6,30.18,NE,38,2.0,4.0,40,0.00,,OVC055,0.00,VWS V14.01,2013-04-20 23:03:00,
2013-04-20 19:08:00,56.4,33.0,30.18,NE,49,3.0,4.0,41,0.00,,OVC055,0.00,VWS V14.01,2013-04-20 23:08:00,
2013-04-20 19:13:00,56.3,34.1,30.19,NE,49,2.0,4.0,43,0.00,,OVC055,0.00,VWS V14.01,2013-04-20 23:13:00,
2013-04-20 19:18:00,56.0,32.7,30.18,ENE,70,2.0,4.0,41,0.00,,OVC055,0.00,VWS V14.01,2013-04-20 23:18:00,
2013-04-20 19:23:00,55.8,31.9,30.19,ENE,61,4.0,4.0,40,0.00,,OVC055,0.00,VWS V14.01,2013-04-20 23:23:00,
2013-04-20 19:28:00,55.5,32.2,30.19,ENE,75,2.0,4.0,41,0.00,,OVC055,0.00,VWS V14.01,2013-04-20 23:28:00,
2013-04-20 19:30:00,55.5,32.2,30.19,ENE,75,2.0,4.0,41,0.00,,OVC055,0.00,VWS V14.01,2013-04-20 23:30:00,
2013-04-20 19:33:00,55.3,32.6,30.19,ENE,69,0.0,3.0,42,0.00,,OVC055,0.00,VWS V14.01,2013-04-20 23:33:00,
2013-04-20 19:38:00,55.0,31.8,30.19,East,94,0.0,7.0,41,0.00,,OVC055,0.00,VWS V14.01,2013-04-20 23:38:00,
2013-04-20 19:43:00,54.7,32.7,30.19,SE,133,1.0,7.0,43,0.00,,OVC055,0.00,VWS V14.01,2013-04-20 23:43:00,
2013-04-20 19:48:00,54.3,35.0,30.20,SE,132,0.0,7.0,48,0.00,,OVC055,0.00,VWS V14.01,2013-04-20 23:48:00,
2013-04-20 19:53:00,53.9,34.2,30.21,ESE,118,0.0,7.0,47,0.00,,OVC055,0.00,VWS V14.01,2013-04-20 23:53:00,
2013-04-20 19:58:00,53.3,32.0,30.21,ENE,68,0.0,7.0,44,0.00,,OVC055,0.00,VWS V14.01,2013-04-20 23:58:00,
2013-04-20 20:00:00,53.3,32.5,30.21,ENE,68,0.0,7.0,45,0.00,,OVC055,0.00,VWS V14.01,2013-04-21 00:00:00,
2013-04-20 20:03:00,53.1,32.3,30.21,ENE,60,1.0,4.0,45,0.00,,OVC055,0.00,VWS V14.01,2013-04-21 00:03:00,
2013-04-20 20:08:00,52.8,32.1,30.22,ENE,65,1.0,4.0,45,0.00,,OVC055,0.00,VWS V14.01,2013-04-21 00:08:00,
2013-04-20 20:13:00,52.5,32.3,30.22,ENE,65,2.0,4.0,46,0.00,,OVC055,0.00,VWS V14.01,2013-04-21 00:13:00,
2013-04-20 20:18:00,52.3,32.7,30.22,ENE,65,1.0,4.0,47,0.00,,OVC055,0.00,VWS V14.01,2013-04-21 00:18:00,
2013-04-20 20:23:00,51.9,32.3,30.23,ENE,65,1.0,4.0,47,0.00,,OVC055,0.00,VWS V14.01,2013-04-21 00:23:00,
2013-04-20 20:28:00,51.5,31.4,30.23,ENE,65,2.0,4.0,46,0.00,,OVC055,0.00,VWS V14.01,2013-04-21 00:28:00,
2013-04-20 20:30:00,51.5,30.9,30.23,ENE,65,2.0,4.0,45,0.00,,OVC055,0.00,VWS V14.01,2013-04-21 00:30:00,
2013-04-20 20:33:00,51.4,31.9,30.24,NE,54,2.0,5.0,47,0.00,,OVC055,0.00,VWS V14.01,2013-04-21 00:33:00,
2013-04-20 20:38:00,51.1,33.6,30.24,NE,54,0.0,5.0,51,0.00,,OVC055,0.00,VWS V14.01,2013-04-21 00:38:00,
2013-04-20 20:43:00,50.7,33.2,30.24,NE,54,0.0,5.0,51,0.00,,OVC055,0.00,VWS V14.01,2013-04-21 00:43:00,
2013-04-20 20:48:00,50.4,32.0,30.25,ENE,57,0.0,5.0,49,0.00,,OVC055,0.00,VWS V14.01,2013-04-21 00:48:00,
2013-04-20 20:53:00,50.1,31.7,30.25,ENE,57,0.0,5.0,49,0.00,,OVC055,0.00,VWS V14.01,2013-04-21 00:53:00,
2013-04-20 20:58:00,50.0,32.1,30.25,NE,56,2.0,5.0,50,0.00,,OVC055,0.00,VWS V14.01,2013-04-21 00:58:00,
2013-04-20 21:00:00,50.0,31.6,30.25,NE,56,0.0,5.0,49,0.00,,OVC055,0.00,VWS V14.01,2013-04-21 01:00:00,
2013-04-20 21:03:00,49.9,32.0,30.26,ENE,57,2.0,3.0,50,0.00,,OVC055,0.00,VWS V14.01,2013-04-21 01:03:00,
2013-04-20 21:08:00,49.9,31.5,30.26,ENE,57,2.0,8.0,49,0.00,,OVC055,0.00,VWS V14.01,2013-04-21 01:08:00,
2013-04-20 21:13:00,49.9,31.0,30.26,ENE,57,1.0,8.0,48,0.00,,OVC055,0.00,VWS V14.01,2013-04-21 01:13:00,
2013-04-20 21:18:00,49.8,31.4,30.27,NE,55,1.0,8.0,49,0.00,,OVC055,0.00,VWS V14.01,2013-04-21 01:18:00,
2013-04-20 21:23:00,49.8,31.9,30.27,ENE,63,3.0,8.0,50,0.00,,OVC055,0.00,VWS V14.01,2013-04-21 01:23:00,
2013-04-20 21:28:00,49.7,31.8,30.27,ENE,57,0.0,8.0,50,0.00,,OVC055,0.00,VWS V14.01,2013-04-21 01:28:00,
2013-04-20 21:30:00,49.7,32.3,30.27,ENE,57,0.0,8.0,51,0.00,,OVC055,0.00,VWS V14.01,2013-04-21 01:30:00,
2013-04-20 21:33:00,49.6,31.7,30.27,ENE,57,1.0,1.0,50,0.00,,OVC055,0.00,VWS V14.01,2013-04-21 01:33:00,
2013-04-20 21:38:00,49.3,32.0,30.28,NE,51,0.0,4.0,51,0.00,,OVC055,0.00,VWS V14.01,2013-04-21 01:38:00,
2013-04-20 21:43:00,49.1,33.2,30.28,ENE,63,0.0,4.0,54,0.00,,OVC055,0.00,VWS V14.01,2013-04-21 01:43:00,
2013-04-20 21:48:00,48.8,31.5,30.28,ENE,63,0.0,4.0,51,0.00,,OVC055,0.00,VWS V14.01,2013-04-21 01:48:00,
2013-04-20 21:53:00,48.8,32.9,30.28,ENE,58,0.0,4.0,54,0.00,,OVC055,0.00,VWS V14.01,2013-04-21 01:53:00,
2013-04-20 21:58:00,48.6,32.3,30.29,ENE,58,0.0,4.0,53,0.00,,OVC055,0.00,VWS V14.01,2013-04-21 01:58:00,
2013-04-20 22:00:00,48.6,32.7,30.29,ENE,58,1.0,4.0,54,0.00,,OVC055,0.00,VWS V14.01,2013-04-21 02:00:00,
2013-04-20 22:03:00,48.4,31.6,30.29,ENE,58,1.0,2.0,52,0.00,,OVC055,0.00,VWS V14.01,2013-04-21 02:03:00,
2013-04-20 22:08:00,48.3,32.0,30.29,ENE,58,0.0,2.0,53,0.00,,OVC055,0.00,VWS V14.01,2013-04-21 02:08:00,
2013-04-20 22:13:00,48.2,31.9,30.29,ENE,58,2.0,2.0,53,0.00,,OVC055,0.00,VWS V14.01,2013-04-21 02:13:00,
2013-04-20 22:18:00,47.9,32.1,30.29,ENE,58,2.0,2.0,54,0.00,,OVC055,0.00,VWS V14.01,2013-04-21 02:18:00,
2013-04-20 22:23:00,47.7,33.2,30.29,NNE,33,0.0,4.0,57,0.00,,OVC055,0.00,VWS V14.01,2013-04-21 02:23:00,
2013-04-20 22:28:00,47.4,33.4,30.30,NNE,33,0.0,4.0,58,0.00,,OVC055,0.00,VWS V14.01,2013-04-21 02:28:00,
2013-04-20 22:30:00,47.3,33.3,30.30,NNE,33,0.0,4.0,58,0.00,,OVC055,0.00,VWS V14.01,2013-04-21 02:30:00,
2013-04-20 22:33:00,46.7,33.2,30.29,NNE,33,0.0,0.0,59,0.00,,OVC055,0.00,VWS V14.01,2013-04-21 02:33:00,
2013-04-20 22:38:00,46.2,32.7,30.30,NNE,33,0.0,0.0,59,0.00,,OVC055,0.00,VWS V14.01,2013-04-21 02:38:00,
2013-04-20 22:43:00,45.7,32.6,30.30,NNE,33,0.0,0.0,60,0.00,,OVC055,0.00,VWS V14.01,2013-04-21 02:43:00,
2013-04-20 22:48:00,45.3,32.7,30.30,NNE,33,0.0,1.0,61,0.00,,OVC055,0.00,VWS V14.01,2013-04-21 02:48:00,
2013-04-20 22:53:00,45.0,32.4,30.30,NNE,33,0.0,1.0,61,0.00,,OVC055,0.00,VWS V14.01,2013-04-21 02:53:00,
2013-04-20 22:58:00,44.8,32.6,30.30,NNE,33,0.0,1.0,62,0.00,,OVC055,0.00,VWS V14.01,2013-04-21 02:58:00,
2013-04-20 23:00:00,44.7,32.5,30.30,NNE,33,0.0,1.0,62,0.00,,OVC055,0.00,VWS V14.01,2013-04-21 03:00:00,
2013-04-20 23:03:00,44.6,32.4,30.30,NNE,33,0.0,0.0,62,0.00,,OVC055,0.00,VWS V14.01,2013-04-21 03:03:00,
2013-04-20 23:08:00,44.3,32.5,30.30,NNE,33,0.0,0.0,63,0.00,,OVC055,0.00,VWS V14.01,2013-04-21 03:08:00,
2013-04-20 23:13:00,43.9,32.5,30.31,NNE,33,0.0,1.0,64,0.00,,OVC055,0.00,VWS V14.01,2013-04-21 03:13:00,
2013-04-20 23:18:00,43.6,32.6,30.30,NNE,33,0.0,1.0,65,0.00,,OVC055,0.00,VWS V14.01,2013-04-21 03:18:00,
2013-04-20 23:23:00,43.3,32.7,30.30,NNE,33,0.0,1.0,66,0.00,,OVC055,0.00,VWS V14.01,2013-04-21 03:23:00,
2013-04-20 23:28:00,43.0,32.1,30.30,NNE,33,0.0,1.0,65,0.00,,OVC055,0.00,VWS V14.01,2013-04-21 03:28:00,
2013-04-20 23:30:00,43.0,32.1,30.30,NNE,33,0.0,1.0,65,0.00,,OVC055,0.00,VWS V14.01,2013-04-21 03:30:00,
2013-04-20 23:32:00,42.9,32.7,30.30,NNE,33,0.0,1.0,67,0.00,,OVC055,0.00,VWS V14.01,2013-04-21 03:32:00,
2013-04-20 23:37:00,42.7,32.5,30.31,NNE,33,1.0,1.0,67,0.00,,OVC055,0.00,VWS V14.01,2013-04-21 03:37:00,
2013-04-20 23:42:00,42.6,32.4,30.30,NNE,33,0.0,1.0,67,0.00,,OVC055,0.00,VWS V14.01,2013-04-21 03:42:00,
2013-04-20 23:47:00,42.4,32.6,30.30,NNE,33,0.0,1.0,68,0.00,,OVC055,0.00,VWS V14.01,2013-04-21 03:47:00,
2013-04-20 23:52:00,42.3,32.5,30.31,NNE,33,0.0,1.0,68,0.00,,OVC055,0.00,VWS V14.01,2013-04-21 03:52:00,
2013-04-20 23:57:00,42.3,32.9,30.31,NNE,33,0.0,1.0,69,0.00,,OVC055,0.00,VWS V14.01,2013-04-21 03:57:00,